Location: Marse
(42.1502°N, 110.9866°W)
Time: 06:57:34
(UTC+00:00)

QB50P2 - Pass Details

Date: 09 July 2022
Orbit: 590 x 605 km, 97.9° (Epoch: 15 August)

Event Time Altitude Azimuth Distance (km) Brightness Sun altitude
Rises 07:57:41 0° 26° (NNE) 2,866 ? -25.2°
Reaches altitude 10° 08:00:14 10° 41° (NE) 1,959 ? -25.1°
Enters shadow 08:03:37 23° 94° (E) 1,292 ? -25.0°
